locationName,lineName,date,time,countIn,countOut
�����w�O,��������,2022/4/1,0:00,0,0
�����w�O,��������,2022/4/1,1:00,0,0
�����w�O,��������,2022/4/1,2:00,0,0
�����w�O,��������,2022/4/1,3:00,0,0
�����w�O,��������,2022/4/1,4:00,0,0
�����w�O,��������,2022/4/1,5:00,0,0
�����w�O,��������,2022/4/1,6:00,0,0
�����w�O,��������,2022/4/1,7:00,0,0
�����w�O,��������,2022/4/1,8:00,0,0
�����w�O,��������,2022/4/1,9:00,0,0
�����w�O,��������,2022/4/1,10:00,0,0
�����w�O,��������,2022/4/1,11:00,0,0
�����w�O,��������,2022/4/1,12:00,0,0
�����w�O,��������,2022/4/1,13:00,209,228
�����w�O,��������,2022/4/1,14:00,40,67
�����w�O,��������,2022/4/1,15:00,339,430
�����w�O,��������,2022/4/1,16:00,307,358
�����w�O,��������,2022/4/1,17:00,351,429
�����w�O,��������,2022/4/1,18:00,299,392
�����w�O,��������,2022/4/1,19:00,147,296
�����w�O,��������,2022/4/1,20:00,91,259
�����w�O,��������,2022/4/1,21:00,89,345
�����w�O,��������,2022/4/1,22:00,36,178
�����w�O,��������,2022/4/1,23:00,9,78
�����w�O,��������,2022/4/2,0:00,1,12
�����w�O,��������,2022/4/2,1:00,1,2
�����w�O,��������,2022/4/2,2:00,0,1
�����w�O,��������,2022/4/2,3:00,5,4
�����w�O,��������,2022/4/2,4:00,1,2
�����w�O,��������,2022/4/2,5:00,18,12
�����w�O,��������,2022/4/2,6:00,39,30
�����w�O,��������,2022/4/2,7:00,88,79
�����w�O,��������,2022/4/2,8:00,222,277
�����w�O,��������,2022/4/2,9:00,396,423
�����w�O,��������,2022/4/2,10:00,577,662
�����w�O,��������,2022/4/2,11:00,471,502
�����w�O,��������,2022/4/2,12:00,568,483
�����w�O,��������,2022/4/2,13:00,453,388
�����w�O,��������,2022/4/2,14:00,455,470
�����w�O,��������,2022/4/2,15:00,453,543
�����w�O,��������,2022/4/2,16:00,456,493
�����w�O,��������,2022/4/2,17:00,380,425
�����w�O,��������,2022/4/2,18:00,279,305
�����w�O,��������,2022/4/2,19:00,207,231
�����w�O,��������,2022/4/2,20:00,162,206
�����w�O,��������,2022/4/2,21:00,75,115
�����w�O,��������,2022/4/2,22:00,87,79
�����w�O,��������,2022/4/2,23:00,34,63
�����w�O,��������,2022/4/3,0:00,41,47
�����w�O,��������,2022/4/3,1:00,11,22
�����w�O,��������,2022/4/3,2:00,22,21
�����w�O,��������,2022/4/3,3:00,13,19
�����w�O,��������,2022/4/3,4:00,3,7
�����w�O,��������,2022/4/3,5:00,10,7
�����w�O,��������,2022/4/3,6:00,63,55
�����w�O,��������,2022/4/3,7:00,74,57
�����w�O,��������,2022/4/3,8:00,263,215
�����w�O,��������,2022/4/3,9:00,323,286
�����w�O,��������,2022/4/3,10:00,493,495
�����w�O,��������,2022/4/3,11:00,542,436
�����w�O,��������,2022/4/3,12:00,502,483
�����w�O,��������,2022/4/3,13:00,528,494
�����w�O,��������,2022/4/3,14:00,579,726
�����w�O,��������,2022/4/3,15:00,542,563
�����w�O,��������,2022/4/3,16:00,550,610
�����w�O,��������,2022/4/3,17:00,443,630
�����w�O,��������,2022/4/3,18:00,387,418
�����w�O,��������,2022/4/3,19:00,274,284
�����w�O,��������,2022/4/3,20:00,99,99
�����w�O,��������,2022/4/3,21:00,78,95
�����w�O,��������,2022/4/3,22:00,26,64
�����w�O,��������,2022/4/3,23:00,11,22
�����w�O,��������,2022/4/4,0:00,2,7
�����w�O,��������,2022/4/4,1:00,0,2
�����w�O,��������,2022/4/4,2:00,0,1
�����w�O,��������,2022/4/4,3:00,4,4
�����w�O,��������,2022/4/4,4:00,2,2
�����w�O,��������,2022/4/4,5:00,11,6
�����w�O,��������,2022/4/4,6:00,63,51
�����w�O,��������,2022/4/4,7:00,132,153
�����w�O,��������,2022/4/4,8:00,173,270
�����w�O,��������,2022/4/4,9:00,190,187
�����w�O,��������,2022/4/4,10:00,298,326
�����w�O,��������,2022/4/4,11:00,247,272
�����w�O,��������,2022/4/4,12:00,372,390
�����w�O,��������,2022/4/4,13:00,337,364
�����w�O,��������,2022/4/4,14:00,364,429
�����w�O,��������,2022/4/4,15:00,317,359
�����w�O,��������,2022/4/4,16:00,314,333
�����w�O,��������,2022/4/4,17:00,339,353
�����w�O,��������,2022/4/4,18:00,281,253
�����w�O,��������,2022/4/4,19:00,255,286
�����w�O,��������,2022/4/4,20:00,118,117
�����w�O,��������,2022/4/4,21:00,72,103
�����w�O,��������,2022/4/4,22:00,17,36
�����w�O,��������,2022/4/4,23:00,8,10
�����w�O,��������,2022/4/5,0:00,1,5
�����w�O,��������,2022/4/5,1:00,1,3
�����w�O,��������,2022/4/5,2:00,0,3
�����w�O,��������,2022/4/5,3:00,7,7
�����w�O,��������,2022/4/5,4:00,1,2
�����w�O,��������,2022/4/5,5:00,5,4
�����w�O,��������,2022/4/5,6:00,59,51
�����w�O,��������,2022/4/5,7:00,134,173
�����w�O,��������,2022/4/5,8:00,147,230
�����w�O,��������,2022/4/5,9:00,168,239
�����w�O,��������,2022/4/5,10:00,363,447
�����w�O,��������,2022/4/5,11:00,270,270
�����w�O,��������,2022/4/5,12:00,318,329
�����w�O,��������,2022/4/5,13:00,337,289
�����w�O,��������,2022/4/5,14:00,331,341
�����w�O,��������,2022/4/5,15:00,307,332
�����w�O,��������,2022/4/5,16:00,327,326
�����w�O,��������,2022/4/5,17:00,292,333
�����w�O,��������,2022/4/5,18:00,223,238
�����w�O,��������,2022/4/5,19:00,179,192
�����w�O,��������,2022/4/5,20:00,88,93
�����w�O,��������,2022/4/5,21:00,51,62
�����w�O,��������,2022/4/5,22:00,26,52
�����w�O,��������,2022/4/5,23:00,9,14
�����w�O,��������,2022/4/6,0:00,3,9
�����w�O,��������,2022/4/6,1:00,2,2
�����w�O,��������,2022/4/6,2:00,0,1
�����w�O,��������,2022/4/6,3:00,5,4
�����w�O,��������,2022/4/6,4:00,4,3
�����w�O,��������,2022/4/6,5:00,16,9
�����w�O,��������,2022/4/6,6:00,73,59
�����w�O,��������,2022/4/6,7:00,167,163
�����w�O,��������,2022/4/6,8:00,170,265
�����w�O,��������,2022/4/6,9:00,161,224
�����w�O,��������,2022/4/6,10:00,188,223
�����w�O,��������,2022/4/6,11:00,218,274
�����w�O,��������,2022/4/6,12:00,336,316
�����w�O,��������,2022/4/6,13:00,344,326
�����w�O,��������,2022/4/6,14:00,287,317
�����w�O,��������,2022/4/6,15:00,234,242
�����w�O,��������,2022/4/6,16:00,233,260
�����w�O,��������,2022/4/6,17:00,321,305
�����w�O,��������,2022/4/6,18:00,237,231
�����w�O,��������,2022/4/6,19:00,148,181
�����w�O,��������,2022/4/6,20:00,95,147
�����w�O,��������,2022/4/6,21:00,61,101
�����w�O,��������,2022/4/6,22:00,21,68
�����w�O,��������,2022/4/6,23:00,9,20
�����w�O,��������,2022/4/7,0:00,4,5
�����w�O,��������,2022/4/7,1:00,1,4
�����w�O,��������,2022/4/7,2:00,0,1
�����w�O,��������,2022/4/7,3:00,5,7
�����w�O,��������,2022/4/7,4:00,3,2
�����w�O,��������,2022/4/7,5:00,8,7
�����w�O,��������,2022/4/7,6:00,62,48
�����w�O,��������,2022/4/7,7:00,148,135
�����w�O,��������,2022/4/7,8:00,142,207
�����w�O,��������,2022/4/7,9:00,129,170
�����w�O,��������,2022/4/7,10:00,214,225
�����w�O,��������,2022/4/7,11:00,271,333
�����w�O,��������,2022/4/7,12:00,287,319
�����w�O,��������,2022/4/7,13:00,252,262
�����w�O,��������,2022/4/7,14:00,223,269
�����w�O,��������,2022/4/7,15:00,254,250
�����w�O,��������,2022/4/7,16:00,273,307
�����w�O,��������,2022/4/7,17:00,303,320
�����w�O,��������,2022/4/7,18:00,225,216
�����w�O,��������,2022/4/7,19:00,104,144
�����w�O,��������,2022/4/7,20:00,46,88
�����w�O,��������,2022/4/7,21:00,56,66
�����w�O,��������,2022/4/7,22:00,29,37
�����w�O,��������,2022/4/7,23:00,9,24
�����w�O,��������,2022/4/8,0:00,5,7
�����w�O,��������,2022/4/8,1:00,1,2
�����w�O,��������,2022/4/8,2:00,0,1
�����w�O,��������,2022/4/8,3:00,7,4
�����w�O,��������,2022/4/8,4:00,3,4
�����w�O,��������,2022/4/8,5:00,5,4
�����w�O,��������,2022/4/8,6:00,88,59
�����w�O,��������,2022/4/8,7:00,211,226
�����w�O,��������,2022/4/8,8:00,179,305
�����w�O,��������,2022/4/8,9:00,168,222
�����w�O,��������,2022/4/8,10:00,244,259
�����w�O,��������,2022/4/8,11:00,169,209
�����w�O,��������,2022/4/8,12:00,249,270
�����w�O,��������,2022/4/8,13:00,208,258
�����w�O,��������,2022/4/8,14:00,217,283
�����w�O,��������,2022/4/8,15:00,245,245
�����w�O,��������,2022/4/8,16:00,341,364
�����w�O,��������,2022/4/8,17:00,250,253
�����w�O,��������,2022/4/8,18:00,281,278
�����w�O,��������,2022/4/8,19:00,193,181
�����w�O,��������,2022/4/8,20:00,104,151
�����w�O,��������,2022/4/8,21:00,80,102
�����w�O,��������,2022/4/8,22:00,48,135
�����w�O,��������,2022/4/8,23:00,11,37
�����w�O,��������,2022/4/9,0:00,5,24
�����w�O,��������,2022/4/9,1:00,6,8
�����w�O,��������,2022/4/9,2:00,4,11
�����w�O,��������,2022/4/9,3:00,7,5
�����w�O,��������,2022/4/9,4:00,0,4
�����w�O,��������,2022/4/9,5:00,12,7
�����w�O,��������,2022/4/9,6:00,43,31
�����w�O,��������,2022/4/9,7:00,85,55
�����w�O,��������,2022/4/9,8:00,157,187
�����w�O,��������,2022/4/9,9:00,272,312
�����w�O,��������,2022/4/9,10:00,273,333
�����w�O,��������,2022/4/9,11:00,275,298
�����w�O,��������,2022/4/9,12:00,291,306
�����w�O,��������,2022/4/9,13:00,299,327
�����w�O,��������,2022/4/9,14:00,357,429
�����w�O,��������,2022/4/9,15:00,296,326
�����w�O,��������,2022/4/9,16:00,306,347
�����w�O,��������,2022/4/9,17:00,275,293
�����w�O,��������,2022/4/9,18:00,251,214
�����w�O,��������,2022/4/9,19:00,182,199
�����w�O,��������,2022/4/9,20:00,122,128
�����w�O,��������,2022/4/9,21:00,83,103
�����w�O,��������,2022/4/9,22:00,79,238
�����w�O,��������,2022/4/9,23:00,26,37
�����w�O,��������,2022/4/10,0:00,0,12
�����w�O,��������,2022/4/10,1:00,2,2
�����w�O,��������,2022/4/10,2:00,0,0
�����w�O,��������,2022/4/10,3:00,5,5
�����w�O,��������,2022/4/10,4:00,1,0
�����w�O,��������,2022/4/10,5:00,12,8
�����w�O,��������,2022/4/10,6:00,29,23
�����w�O,��������,2022/4/10,7:00,106,91
�����w�O,��������,2022/4/10,8:00,97,99
�����w�O,��������,2022/4/10,9:00,222,234
�����w�O,��������,2022/4/10,10:00,314,349
�����w�O,��������,2022/4/10,11:00,357,372
�����w�O,��������,2022/4/10,12:00,314,321
�����w�O,��������,2022/4/10,13:00,355,341
�����w�O,��������,2022/4/10,14:00,396,460
�����w�O,��������,2022/4/10,15:00,365,411
�����w�O,��������,2022/4/10,16:00,350,356
�����w�O,��������,2022/4/10,17:00,224,335
�����w�O,��������,2022/4/10,18:00,189,172
�����w�O,��������,2022/4/10,19:00,162,165
�����w�O,��������,2022/4/10,20:00,80,81
�����w�O,��������,2022/4/10,21:00,36,63
�����w�O,��������,2022/4/10,22:00,20,24
�����w�O,��������,2022/4/10,23:00,6,14
�����w�O,��������,2022/4/11,0:00,1,4
�����w�O,��������,2022/4/11,1:00,1,0
�����w�O,��������,2022/4/11,2:00,1,1
�����w�O,��������,2022/4/11,3:00,0,1
�����w�O,��������,2022/4/11,4:00,1,0
�����w�O,��������,2022/4/11,5:00,11,9
�����w�O,��������,2022/4/11,6:00,78,40
�����w�O,��������,2022/4/11,7:00,153,174
�����w�O,��������,2022/4/11,8:00,125,239
�����w�O,��������,2022/4/11,9:00,152,228
�����w�O,��������,2022/4/11,10:00,178,162
�����w�O,��������,2022/4/11,11:00,165,196
�����w�O,��������,2022/4/11,12:00,183,211
�����w�O,��������,2022/4/11,13:00,164,215
�����w�O,��������,2022/4/11,14:00,179,233
�����w�O,��������,2022/4/11,15:00,179,196
�����w�O,��������,2022/4/11,16:00,240,312
�����w�O,��������,2022/4/11,17:00,231,189
�����w�O,��������,2022/4/11,18:00,247,218
�����w�O,��������,2022/4/11,19:00,145,216
�����w�O,��������,2022/4/11,20:00,69,101
�����w�O,��������,2022/4/11,21:00,43,62
�����w�O,��������,2022/4/11,22:00,21,31
�����w�O,��������,2022/4/11,23:00,4,16
�����w�O,��������,2022/4/12,0:00,1,3
�����w�O,��������,2022/4/12,1:00,0,3
�����w�O,��������,2022/4/12,2:00,1,5
�����w�O,��������,2022/4/12,3:00,5,2
�����w�O,��������,2022/4/12,4:00,6,1
�����w�O,��������,2022/4/12,5:00,12,9
�����w�O,��������,2022/4/12,6:00,80,57
�����w�O,��������,2022/4/12,7:00,180,169
�����w�O,��������,2022/4/12,8:00,149,264
�����w�O,��������,2022/4/12,9:00,104,176
�����w�O,��������,2022/4/12,10:00,138,185
�����w�O,��������,2022/4/12,11:00,129,178
�����w�O,��������,2022/4/12,12:00,177,192
�����w�O,��������,2022/4/12,13:00,129,175
�����w�O,��������,2022/4/12,14:00,140,171
�����w�O,��������,2022/4/12,15:00,169,172
�����w�O,��������,2022/4/12,16:00,188,205
�����w�O,��������,2022/4/12,17:00,220,221
�����w�O,��������,2022/4/12,18:00,325,253
�����w�O,��������,2022/4/12,19:00,190,180
�����w�O,��������,2022/4/12,20:00,92,96
�����w�O,��������,2022/4/12,21:00,46,56
�����w�O,��������,2022/4/12,22:00,17,35
�����w�O,��������,2022/4/12,23:00,3,11
�����w�O,��������,2022/4/13,0:00,4,4
�����w�O,��������,2022/4/13,1:00,0,0
�����w�O,��������,2022/4/13,2:00,0,1
�����w�O,��������,2022/4/13,3:00,4,4
�����w�O,��������,2022/4/13,4:00,0,2
�����w�O,��������,2022/4/13,5:00,8,54
�����w�O,��������,2022/4/13,6:00,76,121
�����w�O,��������,2022/4/13,7:00,189,255
�����w�O,��������,2022/4/13,8:00,124,278
�����w�O,��������,2022/4/13,9:00,111,189
�����w�O,��������,2022/4/13,10:00,131,186
�����w�O,��������,2022/4/13,11:00,122,192
�����w�O,��������,2022/4/13,12:00,168,218
�����w�O,��������,2022/4/13,13:00,157,188
�����w�O,��������,2022/4/13,14:00,129,214
�����w�O,��������,2022/4/13,15:00,164,242
�����w�O,��������,2022/4/13,16:00,197,287
�����w�O,��������,2022/4/13,17:00,269,355
�����w�O,��������,2022/4/13,18:00,240,403
�����w�O,��������,2022/4/13,19:00,129,273
�����w�O,��������,2022/4/13,20:00,59,240
�����w�O,��������,2022/4/13,21:00,64,235
�����w�O,��������,2022/4/13,22:00,37,214
�����w�O,��������,2022/4/13,23:00,4,93
�����w�O,��������,2022/4/14,0:00,5,11
�����w�O,��������,2022/4/14,1:00,3,6
�����w�O,��������,2022/4/14,2:00,0,3
�����w�O,��������,2022/4/14,3:00,3,2
�����w�O,��������,2022/4/14,4:00,3,0
�����w�O,��������,2022/4/14,5:00,11,5
�����w�O,��������,2022/4/14,6:00,82,38
�����w�O,��������,2022/4/14,7:00,204,253
�����w�O,��������,2022/4/14,8:00,148,241
�����w�O,��������,2022/4/14,9:00,83,130
�����w�O,��������,2022/4/14,10:00,107,111
�����w�O,��������,2022/4/14,11:00,127,133
�����w�O,��������,2022/4/14,12:00,153,137
�����w�O,��������,2022/4/14,13:00,143,140
�����w�O,��������,2022/4/14,14:00,119,151
�����w�O,��������,2022/4/14,15:00,124,165
�����w�O,��������,2022/4/14,16:00,193,212
�����w�O,��������,2022/4/14,17:00,228,241
�����w�O,��������,2022/4/14,18:00,212,189
�����w�O,��������,2022/4/14,19:00,128,155
�����w�O,��������,2022/4/14,20:00,43,71
�����w�O,��������,2022/4/14,21:00,49,66
�����w�O,��������,2022/4/14,22:00,29,54
�����w�O,��������,2022/4/14,23:00,9,19
�����w�O,��������,2022/4/15,0:00,0,8
�����w�O,��������,2022/4/15,1:00,0,2
�����w�O,��������,2022/4/15,2:00,1,0
�����w�O,��������,2022/4/15,3:00,3,3
�����w�O,��������,2022/4/15,4:00,3,3
�����w�O,��������,2022/4/15,5:00,11,5
�����w�O,��������,2022/4/15,6:00,70,52
�����w�O,��������,2022/4/15,7:00,205,212
�����w�O,��������,2022/4/15,8:00,168,275
�����w�O,��������,2022/4/15,9:00,128,230
�����w�O,��������,2022/4/15,10:00,183,267
�����w�O,��������,2022/4/15,11:00,234,314
�����w�O,��������,2022/4/15,12:00,213,232
�����w�O,��������,2022/4/15,13:00,236,259
�����w�O,��������,2022/4/15,14:00,179,224
�����w�O,��������,2022/4/15,15:00,180,240
�����w�O,��������,2022/4/15,16:00,231,239
�����w�O,��������,2022/4/15,17:00,368,452
�����w�O,��������,2022/4/15,18:00,278,226
�����w�O,��������,2022/4/15,19:00,249,311
�����w�O,��������,2022/4/15,20:00,78,128
�����w�O,��������,2022/4/15,21:00,75,94
�����w�O,��������,2022/4/15,22:00,31,61
�����w�O,��������,2022/4/15,23:00,8,24
�����w�O,��������,2022/4/16,0:00,1,8
�����w�O,��������,2022/4/16,1:00,1,13
�����w�O,��������,2022/4/16,2:00,1,3
�����w�O,��������,2022/4/16,3:00,6,4
�����w�O,��������,2022/4/16,4:00,4,5
�����w�O,��������,2022/4/16,5:00,11,9
�����w�O,��������,2022/4/16,6:00,51,34
�����w�O,��������,2022/4/16,7:00,109,98
�����w�O,��������,2022/4/16,8:00,165,199
�����w�O,��������,2022/4/16,9:00,185,221
�����w�O,��������,2022/4/16,10:00,359,518
�����w�O,��������,2022/4/16,11:00,450,537
�����w�O,��������,2022/4/16,12:00,278,258
�����w�O,��������,2022/4/16,13:00,440,552
�����w�O,��������,2022/4/16,14:00,333,334
�����w�O,��������,2022/4/16,15:00,327,298
�����w�O,��������,2022/4/16,16:00,268,330
�����w�O,��������,2022/4/16,17:00,251,298
�����w�O,��������,2022/4/16,18:00,254,279
�����w�O,��������,2022/4/16,19:00,193,211
�����w�O,��������,2022/4/16,20:00,112,208
�����w�O,��������,2022/4/16,21:00,77,110
�����w�O,��������,2022/4/16,22:00,28,64
�����w�O,��������,2022/4/16,23:00,18,35
�����w�O,��������,2022/4/17,0:00,1,8
�����w�O,��������,2022/4/17,1:00,1,6
�����w�O,��������,2022/4/17,2:00,0,2
�����w�O,��������,2022/4/17,3:00,5,5
�����w�O,��������,2022/4/17,4:00,2,2
�����w�O,��������,2022/4/17,5:00,16,18
�����w�O,��������,2022/4/17,6:00,43,46
�����w�O,��������,2022/4/17,7:00,83,80
�����w�O,��������,2022/4/17,8:00,120,123
�����w�O,��������,2022/4/17,9:00,208,207
�����w�O,��������,2022/4/17,10:00,286,297
�����w�O,��������,2022/4/17,11:00,263,243
�����w�O,��������,2022/4/17,12:00,292,278
�����w�O,��������,2022/4/17,13:00,263,298
�����w�O,��������,2022/4/17,14:00,292,325
�����w�O,��������,2022/4/17,15:00,281,344
�����w�O,��������,2022/4/17,16:00,281,297
�����w�O,��������,2022/4/17,17:00,283,400
�����w�O,��������,2022/4/17,18:00,208,271
�����w�O,��������,2022/4/17,19:00,181,194
�����w�O,��������,2022/4/17,20:00,90,84
�����w�O,��������,2022/4/17,21:00,38,70
�����w�O,��������,2022/4/17,22:00,19,31
�����w�O,��������,2022/4/17,23:00,17,27
�����w�O,��������,2022/4/18,0:00,1,5
�����w�O,��������,2022/4/18,1:00,1,4
�����w�O,��������,2022/4/18,2:00,1,0
�����w�O,��������,2022/4/18,3:00,4,3
�����w�O,��������,2022/4/18,4:00,1,2
�����w�O,��������,2022/4/18,5:00,14,12
�����w�O,��������,2022/4/18,6:00,75,49
�����w�O,��������,2022/4/18,7:00,172,172
�����w�O,��������,2022/4/18,8:00,201,315
�����w�O,��������,2022/4/18,9:00,148,207
�����w�O,��������,2022/4/18,10:00,185,244
�����w�O,��������,2022/4/18,11:00,188,229
�����w�O,��������,2022/4/18,12:00,192,244
�����w�O,��������,2022/4/18,13:00,209,272
�����w�O,��������,2022/4/18,14:00,184,221
�����w�O,��������,2022/4/18,15:00,187,206
�����w�O,��������,2022/4/18,16:00,255,280
�����w�O,��������,2022/4/18,17:00,307,257
�����w�O,��������,2022/4/18,18:00,354,331
�����w�O,��������,2022/4/18,19:00,183,246
�����w�O,��������,2022/4/18,20:00,113,174
�����w�O,��������,2022/4/18,21:00,45,57
�����w�O,��������,2022/4/18,22:00,17,38
�����w�O,��������,2022/4/18,23:00,5,11
�����w�O,��������,2022/4/19,0:00,1,0
�����w�O,��������,2022/4/19,1:00,0,2
�����w�O,��������,2022/4/19,2:00,0,2
�����w�O,��������,2022/4/19,3:00,3,3
�����w�O,��������,2022/4/19,4:00,2,6
�����w�O,��������,2022/4/19,5:00,14,9
�����w�O,��������,2022/4/19,6:00,73,56
�����w�O,��������,2022/4/19,7:00,183,169
�����w�O,��������,2022/4/19,8:00,145,252
�����w�O,��������,2022/4/19,9:00,110,193
�����w�O,��������,2022/4/19,10:00,175,196
�����w�O,��������,2022/4/19,11:00,140,183
�����w�O,��������,2022/4/19,12:00,215,247
�����w�O,��������,2022/4/19,13:00,191,169
�����w�O,��������,2022/4/19,14:00,125,167
�����w�O,��������,2022/4/19,15:00,190,208
�����w�O,��������,2022/4/19,16:00,208,199
�����w�O,��������,2022/4/19,17:00,259,285
�����w�O,��������,2022/4/19,18:00,221,227
�����w�O,��������,2022/4/19,19:00,181,173
�����w�O,��������,2022/4/19,20:00,101,152
�����w�O,��������,2022/4/19,21:00,58,81
�����w�O,��������,2022/4/19,22:00,27,58
�����w�O,��������,2022/4/19,23:00,10,18
�����w�O,��������,2022/4/20,0:00,5,4
�����w�O,��������,2022/4/20,1:00,1,0
�����w�O,��������,2022/4/20,2:00,0,1
�����w�O,��������,2022/4/20,3:00,5,2
�����w�O,��������,2022/4/20,4:00,3,5
�����w�O,��������,2022/4/20,5:00,10,9
�����w�O,��������,2022/4/20,6:00,76,56
�����w�O,��������,2022/4/20,7:00,177,165
�����w�O,��������,2022/4/20,8:00,149,242
�����w�O,��������,2022/4/20,9:00,129,178
�����w�O,��������,2022/4/20,10:00,145,173
�����w�O,��������,2022/4/20,11:00,153,205
�����w�O,��������,2022/4/20,12:00,158,207
�����w�O,��������,2022/4/20,13:00,173,191
�����w�O,��������,2022/4/20,14:00,190,230
�����w�O,��������,2022/4/20,15:00,173,244
�����w�O,��������,2022/4/20,16:00,332,312
�����w�O,��������,2022/4/20,17:00,316,316
�����w�O,��������,2022/4/20,18:00,243,227
�����w�O,��������,2022/4/20,19:00,246,298
�����w�O,��������,2022/4/20,20:00,112,174
�����w�O,��������,2022/4/20,21:00,110,195
�����w�O,��������,2022/4/20,22:00,59,68
�����w�O,��������,2022/4/20,23:00,11,27
�����w�O,��������,2022/4/21,0:00,5,11
�����w�O,��������,2022/4/21,1:00,3,8
�����w�O,��������,2022/4/21,2:00,0,1
�����w�O,��������,2022/4/21,3:00,4,4
�����w�O,��������,2022/4/21,4:00,4,3
�����w�O,��������,2022/4/21,5:00,13,6
�����w�O,��������,2022/4/21,6:00,81,52
�����w�O,��������,2022/4/21,7:00,195,183
�����w�O,��������,2022/4/21,8:00,146,197
�����w�O,��������,2022/4/21,9:00,130,190
�����w�O,��������,2022/4/21,10:00,193,220
�����w�O,��������,2022/4/21,11:00,160,182
�����w�O,��������,2022/4/21,12:00,157,162
�����w�O,��������,2022/4/21,13:00,167,206
�����w�O,��������,2022/4/21,14:00,129,186
�����w�O,��������,2022/4/21,15:00,119,147
�����w�O,��������,2022/4/21,16:00,202,205
�����w�O,��������,2022/4/21,17:00,230,224
�����w�O,��������,2022/4/21,18:00,218,217
�����w�O,��������,2022/4/21,19:00,158,263
�����w�O,��������,2022/4/21,20:00,57,80
�����w�O,��������,2022/4/21,21:00,48,85
�����w�O,��������,2022/4/21,22:00,32,60
�����w�O,��������,2022/4/21,23:00,13,36
�����w�O,��������,2022/4/22,0:00,0,9
�����w�O,��������,2022/4/22,1:00,0,0
�����w�O,��������,2022/4/22,2:00,0,0
�����w�O,��������,2022/4/22,3:00,5,4
�����w�O,��������,2022/4/22,4:00,2,1
�����w�O,��������,2022/4/22,5:00,10,10
�����w�O,��������,2022/4/22,6:00,82,55
�����w�O,��������,2022/4/22,7:00,174,180
�����w�O,��������,2022/4/22,8:00,141,233
�����w�O,��������,2022/4/22,9:00,135,230
�����w�O,��������,2022/4/22,10:00,216,264
�����w�O,��������,2022/4/22,11:00,207,224
�����w�O,��������,2022/4/22,12:00,209,277
�����w�O,��������,2022/4/22,13:00,287,401
�����w�O,��������,2022/4/22,14:00,215,232
�����w�O,��������,2022/4/22,15:00,154,203
�����w�O,��������,2022/4/22,16:00,289,316
�����w�O,��������,2022/4/22,17:00,270,235
�����w�O,��������,2022/4/22,18:00,274,295
�����w�O,��������,2022/4/22,19:00,367,336
�����w�O,��������,2022/4/22,20:00,129,222
�����w�O,��������,2022/4/22,21:00,71,109
�����w�O,��������,2022/4/22,22:00,45,76
�����w�O,��������,2022/4/22,23:00,10,38
�����w�O,��������,2022/4/23,0:00,5,7
�����w�O,��������,2022/4/23,1:00,1,4
�����w�O,��������,2022/4/23,2:00,0,5
�����w�O,��������,2022/4/23,3:00,3,5
�����w�O,��������,2022/4/23,4:00,2,1
�����w�O,��������,2022/4/23,5:00,9,8
�����w�O,��������,2022/4/23,6:00,62,34
�����w�O,��������,2022/4/23,7:00,78,51
�����w�O,��������,2022/4/23,8:00,125,110
�����w�O,��������,2022/4/23,9:00,295,345
�����w�O,��������,2022/4/23,10:00,320,281
�����w�O,��������,2022/4/23,11:00,304,286
�����w�O,��������,2022/4/23,12:00,338,274
�����w�O,��������,2022/4/23,13:00,306,325
�����w�O,��������,2022/4/23,14:00,257,317
�����w�O,��������,2022/4/23,15:00,308,300
�����w�O,��������,2022/4/23,16:00,333,396
�����w�O,��������,2022/4/23,17:00,260,331
�����w�O,��������,2022/4/23,18:00,224,209
�����w�O,��������,2022/4/23,19:00,163,194
�����w�O,��������,2022/4/23,20:00,78,137
�����w�O,��������,2022/4/23,21:00,60,120
�����w�O,��������,2022/4/23,22:00,31,58
�����w�O,��������,2022/4/23,23:00,21,36
�����w�O,��������,2022/4/24,0:00,0,20
�����w�O,��������,2022/4/24,1:00,0,3
�����w�O,��������,2022/4/24,2:00,0,2
�����w�O,��������,2022/4/24,3:00,5,6
�����w�O,��������,2022/4/24,4:00,1,2
�����w�O,��������,2022/4/24,5:00,2,5
�����w�O,��������,2022/4/24,6:00,21,10
�����w�O,��������,2022/4/24,7:00,69,38
�����w�O,��������,2022/4/24,8:00,94,94
�����w�O,��������,2022/4/24,9:00,180,140
�����w�O,��������,2022/4/24,10:00,241,248
�����w�O,��������,2022/4/24,11:00,163,180
�����w�O,��������,2022/4/24,12:00,240,207
�����w�O,��������,2022/4/24,13:00,279,248
�����w�O,��������,2022/4/24,14:00,248,330
�����w�O,��������,2022/4/24,15:00,207,247
�����w�O,��������,2022/4/24,16:00,198,228
�����w�O,��������,2022/4/24,17:00,184,224
�����w�O,��������,2022/4/24,18:00,137,141
�����w�O,��������,2022/4/24,19:00,99,129
�����w�O,��������,2022/4/24,20:00,63,82
�����w�O,��������,2022/4/24,21:00,32,45
�����w�O,��������,2022/4/24,22:00,39,67
�����w�O,��������,2022/4/24,23:00,29,39
�����w�O,��������,2022/4/25,0:00,7,10
�����w�O,��������,2022/4/25,1:00,1,1
�����w�O,��������,2022/4/25,2:00,0,2
�����w�O,��������,2022/4/25,3:00,3,2
�����w�O,��������,2022/4/25,4:00,1,1
�����w�O,��������,2022/4/25,5:00,9,11
�����w�O,��������,2022/4/25,6:00,66,51
�����w�O,��������,2022/4/25,7:00,178,184
�����w�O,��������,2022/4/25,8:00,130,210
�����w�O,��������,2022/4/25,9:00,146,176